Home   Weather   Dakar   Past weeks

Flag for Senegal Past Weather in Dakar, Senegal — Yesterday and Last 2 Weeks

Now
81 °F

Sunny.


Feels Like: 80 °F
Forecast: 75 / 86 °F
Wind: 9 mph from Northeast

Location: Dakar / Yoff

Current Time: Dec 10, 2016 at 11:03:51 am

Latest Report: Dec 10, 2016 at 10:30 am


Visibility: 10 mi

Pressure: 29.95 "Hg

Humidity: 39%

Dew Point: 54 °F

Location of DakarLocation

Past Weather in Dakar — Graph

°F

Dakar Temperature Yesterday

Maximum temperature yesterday: 93 °F (at 12:30 pm)
Minimum temperature yesterday: 72 °F (at 12:00 am)
Average temperature yesterday: 81 °F

High & Low Weather Summary for the Past Weeks

 TemperatureHumidityPressure
High93 °F (Dec 9, 12:30 pm)100% (Nov 30, 6:30 am)32.81 "Hg (Nov 30, 6:30 am)
Low68 °F (Dec 8, 5:00 am)20% (Dec 9, 1:00 pm)29.80 "Hg (Nov 27, 8:30 pm)
Average79 °F74%29.90 "Hg
* Reported Nov 25 10:00 am — Dec 10 10:00 am, Dakar, Weather by CustomWeather, © 2016

Note: Actual official high and low records may vary slightly from our data, if they occured in-between our weather recording intervals... More about our weather records

Advertising

Dakar Weather History for the Previous 24 Hours

Scroll right to see more
 ConditionsComfort  
Time TempWeatherWind HumidityBarometerVisibility
10:00 am
Sat, Dec 10
82 °FPassing clouds.9 mph30%29.98 "HgN/A
9:00 am77 °FSunny.9 mph44%29.95 "Hg10 mi
8:30 am77 °FSunny.9 mph47%29.95 "Hg10 mi
8:00 am75 °FSunny.9 mph50%29.95 "Hg10 mi
7:30 am75 °FSunny.10 mph54%29.92 "Hg10 mi
7:00 am75 °FClear.10 mph54%29.92 "Hg10 mi
6:30 am77 °FClear.9 mph54%29.92 "Hg10 mi
6:00 am77 °FClear.10 mph54%29.92 "Hg10 mi
5:30 am77 °FClear.7 mph74%29.92 "Hg10 mi
5:00 am77 °FClear.9 mph79%29.92 "Hg10 mi
4:30 am77 °FClear.9 mph83%29.92 "Hg10 mi
4:00 am77 °FClear.8 mph83%29.92 "Hg10 mi
3:30 am77 °FClear.9 mph83%29.92 "Hg10 mi
3:00 am77 °FClear.10 mph83%29.92 "Hg10 mi
2:30 am77 °FClear.12 mph83%29.92 "Hg10 mi
2:00 am77 °FClear.12 mph83%29.92 "Hg10 mi
1:30 am77 °FClear.12 mph83%29.95 "Hg10 mi
1:00 am77 °FClear.12 mph83%29.95 "Hg10 mi
12:30 am77 °FClear.10 mph89%29.95 "Hg10 mi
12:00 am77 °FClear.12 mph89%29.95 "Hg10 mi
11:30 pm
Fri, Dec 9
79 °FClear.13 mph84%29.95 "Hg10 mi
11:00 pm79 °FClear.13 mph79%29.95 "Hg10 mi
10:30 pm79 °FClear.13 mph79%29.95 "Hg10 mi
10:00 pm79 °FClear.13 mph79%29.95 "Hg10 mi
9:30 pm79 °FClear.12 mph79%29.95 "Hg10 mi
9:00 pm79 °FClear.10 mph79%29.92 "Hg10 mi
8:30 pm79 °FClear.12 mph79%29.92 "Hg10 mi
8:00 pm81 °FClear.12 mph70%29.92 "Hg10 mi
7:30 pm81 °FClear.13 mph70%29.89 "Hg10 mi
7:00 pm81 °FClear.13 mph70%29.89 "Hg10 mi
6:30 pm81 °FSunny.13 mph70%29.86 "Hg10 mi
6:00 pm82 °FSunny.12 mph62%29.86 "Hg10 mi
5:30 pm82 °FSunny.12 mph62%29.86 "Hg10 mi
5:00 pm84 °FSunny.12 mph55%29.86 "Hg10 mi
4:30 pm86 °FSunny.8 mph49%29.86 "Hg10 mi
4:00 pm86 °FSunny.9 mph49%29.86 "Hg10 mi
3:30 pm90 °FPassing clouds.7 mph36%29.86 "HgN/A
3:00 pm90 °FSunny.6 mph41%29.89 "Hg10 mi
2:30 pm93 °FSunny.7 mph30%29.89 "Hg10 mi
2:00 pm93 °FSunny.8 mph28%29.89 "Hg10 mi
1:30 pm93 °FPassing clouds.8 mph24%29.89 "HgN/A
1:00 pm93 °FPassing clouds.7 mph20%29.92 "HgN/A
12:30 pm93 °FPassing clouds.8 mph21%29.92 "HgN/A
12:00 pm91 °FSunny.10 mph23%29.95 "Hg10 mi
11:30 am90 °FSunny.10 mph24%29.95 "Hg10 mi
11:00 am88 °FSunny.10 mph25%29.98 "Hg10 mi
Weather by CustomWeather, © 2016

See weather overviewHow to use our weather pages